"Pseudo-MPEC" for P10TO28

Created 2019 Nov 13 9:07:07 UT using Find_Orb

Click here for an explanation of pseudo-MPECs

 
 Astrometry: 
     P10TO28  C2019 10 31oKw%bAstrometryh032BUqx.NLXF_Lredacted;)RQx*9D*/3S40F51
     P10TO28  C2019 10 31XPyBclickc1r\pZeB9e'?'0q3hereb!L,+5@^#PpSfor)mpnehQ6F51
     P10TO28  C2019 10 31#pX[explanation:[b$ROA-MmkG+oRV5#s*h;5$+7ZfQo(/!XP/4F51
     P10TO28 KC2019 11 01.45302 04 54 57.50 +15 56 35.3    ~B1Bb       oNEOCP291
     P10TO28 KC2019 11 01.45758 04 54 57.99 +15 56 37.9    ~B1Bb       oNEOCP291
     P10TO28 KC2019 11 01.46211 04 54 58.47 +15 56 40.1    ~B1Bb       oNEOCP291

Station data:
(291) LPL/Spacewatch II  (N31.961669 W111.599905)  US/Arizona.  Observers J.
   V. Scotti, R. S. McMillan. 1.8-m f/2.7 reflector + CCD.
(F51) Pan-STARRS 1, Haleakala  (N20.707235 W156.255910)  US/Hawaii.
   Observers N. Primak, A. Schultz, S. Watters, J. Thiel, T. Goggia. Measurer
   PS1 Science Consortium. 1.8-m Ritchey-Chrétien + CCD.

Orbital elements:  P10TO28
   Perihelion 2020 Jan 30.043574 +/- 10.7 TT =  1:02:44 (JD 2458878.543574)
Epoch 2019 Nov  1.0 TT = JDT 2458788.5   Earth MOID: 0.0031   Ve: 0.0046
M 269.02011698 +/- 6                Ma: 0.0965                AutoNEOCP
n   1.01039839 +/- 0.0553           Peri.  112.34248 +/- 10
a   0.98357530 +/- 0.0359           Node    53.34473 +/- 3.1
e   0.3118399 +/- 0.129             Incl.    3.06115 +/- 1.1
P   0.98/356.29d           H 25.9   G  0.15   U 10.8  
q 0.67685723 +/- 0.148    Q 1.29029338 +/- 0.082
From 6 observations 2019 Oct. 31-Nov. 1 (24.6 hr); mean residual 0".06
Residuals in arcseconds: 
191031 F51  .00   .08-    191031 F51  .00   .02+    191101 291  .04+  .12+    
191031 F51  .00   .06+    191101 291  .06-  .08-    191101 291  .02+  .05-    

Ephemerides (geocentric):
Date (UTC) HH   RA              Dec         delta   r     elong  mag " sig PA
---- -- -- --  -------------   -----------  ------ ------ -----  --- ---- ---
2019 11 13 09  06 02 19.884   +20 57 10.74  .03535 1.0169 139.8 20.3 332'  76
2019 11 13 10  06 02 58.877   +20 59 44.46  .03514 1.0167 139.7 20.2 337'  76
2019 11 13 11  06 03 38.359   +21 02 19.51  .03492 1.0165 139.6 20.2 343'  76
2019 11 13 12  06 04 18.337   +21 04 55.88  .03471 1.0162 139.5 20.2 348'  76
2019 11 13 13  06 04 58.821   +21 07 33.60  .03450 1.0160 139.4 20.2 353'  76
2019 11 13 14  06 05 39.821   +21 10 12.66  .03428 1.0158 139.2 20.2 359'  76
2019 11 13 15  06 06 21.345   +21 12 53.08  .03407 1.0156 139.1 20.2 365'  76
2019 11 13 16  06 07 03.404   +21 15 34.88  .03386 1.0154 139.0 20.2 371'  77
2019 11 13 17  06 07 46.006   +21 18 18.04  .03365 1.0151 138.9 20.2 376'  77
2019 11 13 18  06 08 29.162   +21 21 02.60  .03344 1.0149 138.8 20.2 382'  77
2019 11 13 19  06 09 12.883   +21 23 48.55  .03323 1.0147 138.6 20.2 388'  77
2019 11 13 20  06 09 57.179   +21 26 35.90  .03302 1.0145 138.5 20.1 395'  77
2019 11 13 21  06 10 42.060   +21 29 24.67  .03281 1.0143 138.4 20.1 401'  77
2019 11 13 22  06 11 27.537   +21 32 14.85  .03260 1.0141 138.3 20.1 407'  77
2019 11 13 23  06 12 13.622   +21 35 06.45  .03239 1.0138 138.1 20.1 414'  77
2019 11 14 00  06 13 00.326   +21 37 59.49  .03218 1.0136 138.0 20.1 420'  77
2019 11 14 01  06 13 47.661   +21 40 53.96  .03197 1.0134 137.8 20.1 427'  77
2019 11 14 02  06 14 35.639   +21 43 49.88  .03176 1.0132 137.7 20.1 434'  77
2019 11 14 03  06 15 24.272   +21 46 47.24  .03156 1.0130 137.6 20.1 441'  77
2019 11 14 04  06 16 13.573   +21 49 46.06  .03135 1.0128 137.4 20.1 448'  77
2019 11 14 05  06 17 03.553   +21 52 46.33  .03114 1.0125 137.3 20.0 455'  77
2019 11 14 06  06 17 54.228   +21 55 48.06  .03093 1.0123 137.1 20.0 463'  77
2019 11 14 07  06 18 45.609   +21 58 51.25  .03073 1.0121 137.0 20.0 470'  77
2019 11 14 08  06 19 37.711   +22 01 55.91  .03052 1.0119 136.8 20.0 478'  77
2019 11 14 09  06 20 30.547   +22 05 02.03  .03032 1.0117 136.6 20.0 486'  78
2019 11 14 10  06 21 24.133   +22 08 09.62  .03011 1.0114 136.5 20.0 493'  78
2019 11 14 11  06 22 18.482   +22 11 18.67  .02991 1.0112 136.3 20.0 501'  78
2019 11 14 12  06 23 13.609   +22 14 29.18  .02970 1.0110 136.2 20.0 510'  78
2019 11 14 13  06 24 09.531   +22 17 41.14  .02950 1.0108 136.0 20.0 518'  78
2019 11 14 14  06 25 06.262   +22 20 54.57  .02930 1.0106 135.8 19.9 526'  78
2019 11 14 15  06 26 03.819   +22 24 09.44  .02909 1.0104 135.6 19.9 535'  78
2019 11 14 16  06 27 02.218   +22 27 25.75  .02889 1.0101 135.5 19.9 544'  78
2019 11 14 17  06 28 01.475   +22 30 43.50  .02869 1.0099 135.3 19.9 553'  78
2019 11 14 18  06 29 01.609   +22 34 02.67  .02849 1.0097 135.1 19.9 562'  78
2019 11 14 19  06 30 02.635   +22 37 23.26  .02829 1.0095 134.9 19.9 571'  78
2019 11 14 20  06 31 04.574   +22 40 45.25  .02809 1.0093 134.7 19.9 581'  78
2019 11 14 21  06 32 07.441   +22 44 08.63  .02789 1.0090 134.5 19.9 590'  79
2019 11 14 22  06 33 11.258   +22 47 33.38  .02769 1.0088 134.3 19.9 600'  79
2019 11 14 23  06 34 16.041   +22 50 59.49  .02749 1.0086 134.1 19.9 610'  79
2019 11 15 00  06 35 21.812   +22 54 26.92  .02729 1.0084 133.9 19.8 620'  79
2019 11 15 01  06 36 28.590   +22 57 55.67  .02709 1.0082 133.7 19.8 630'  79
2019 11 15 02  06 37 36.395   +23 01 25.71  .02689 1.0079 133.5 19.8 641'  79
2019 11 15 03  06 38 45.248   +23 04 57.01  .02670 1.0077 133.3 19.8 652'  79
2019 11 15 04  06 39 55.171   +23 08 29.54  .02650 1.0075 133.0 19.8 663'  79
2019 11 15 05  06 41 06.186   +23 12 03.27  .02631 1.0073 132.8 19.8 674'  79
2019 11 15 06  06 42 18.314   +23 15 38.17  .02611 1.0071 132.6 19.8 685'  79
2019 11 15 07  06 43 31.578   +23 19 14.19  .02592 1.0068 132.4 19.8 697'  80
2019 11 15 08  06 44 46.002   +23 22 51.30  .02572 1.0066 132.1 19.8 708'  80